Location: Austin
(30.3000°N, 97.7500°W)
Time: 12:06:44
(UTC-05:00)

Geosat - Pass Details

Date: 08 April 2026
Orbit: 757 x 760 km, 108.1° (Epoch: 11 April)

Event Time Altitude Azimuth Distance (km) Brightness Sun altitude
Rises 20:12:37 0° 34° (NNE) 3,219 7.0 -4.7°
Reaches altitude 10° 20:15:03 10° 42° (NE) 2,290 6.2 -5.2°
Maximum altitude 20:19:40 37° 110° (ESE) 1,155 4.5 -6.2°
Drops below altitude 10° 20:24:15 10° 177° (S) 2,277 6.3 -7.2°
Sets 20:26:39 0° 186° (S) 3,198 7.1 -7.7°
